DW8956 Weather Reports


time (UTC)temp
C
wind
direction
speed
KPH
gust
KPH
rain 1hr
cm
rain 24hr
cm
rain mn
cm
humidity
%
barometer
mb
20200227120610 0 155 12.9 22.5 0.03 0.20 0.05 96 993.1
20200227113610 0 169 12.9 29.0 0.03 0.30 0.05 95 994.3
20200227110610 0 148 17.7 29.0 0.00 0.28 0.03 95 995.4
20200227103610 0 146 14.5 25.7 0.00 0.38 0.03 95 996.4
20200227100610 0 153 9.7 17.7 0.00 0.38 0.03 95 997.6
20200227095110 0 135 14.5 22.5 0.00 0.43 0.03 95 998.2
20200227093610 0 144 11.3 24.1 0.00 0.43 0.03 94 998.7
20200227092110 0 164 12.9 24.1 0.00 0.43 0.03 95 999.2
20200227090610 0 152 11.3 24.1 0.03 0.43 0.03 95 999.6
20200227085110 0 184 11.3 22.5 0.03 0.43 0.03 94 0.3
20200227083610 0 148 11.3 20.9 0.03 0.43 0.03 94 0.8
20200227073610 0 156 14.5 27.4 0.00 0.43 0.00 95 1.6
20200227060610 0 155 11.3 20.9 0.00 0.43 0.00 94 3.0
20200227053610 0 178 8.0 16.1 0.00 0.43 0.00 94 3.6
20200227050610 0 188 9.7 16.1 0.00 0.43 0.00 94 4.0
20200227045110 0 186 8.0 14.5 0.00 0.43 0.00 94 4.2
20200227040610 0 238 4.8 12.9 0.00 0.43 0.00 93 4.6
20200227032112 0 219 6.4 11.3 0.00 0.43 0.00 94 5.1
20200227030612 0 223 4.8 11.3 0.00 0.43 0.00 93 5.1
20200227022112 0 227 6.4 12.9 0.00 0.43 0.00 93 5.5
20200227015112 0 195 8.0 16.1 0.00 0.43 0.00 94 5.7
20200227010612 0 182 3.2 8.0 0.00 0.43 0.00 94 6.0
20200227002112 0 227 4.8 11.3 0.00 0.43 0.00 94 5.9
20200227000611 0 250 9.7 14.5 0.00 0.43 0.00 94 5.9
20200226235112 0 250 8.0 12.9 0.00 0.43 0.00 93 5.8
20200226232112 0 234 8.0 16.1 0.00 0.43 0.00 94 5.9
20200226230612 0 227 8.0 17.7 0.00 0.43 0.00 95 6.0
20200226225112 0 215 11.3 17.7 0.00 0.43 0.43 94 6.1
20200226223612 0 257 8.0 16.1 0.00 0.43 0.43 95 6.0
20200226213611 0 230 9.7 22.5 0.00 0.43 0.43 93 5.7
20200226212111 0 256 11.3 20.9 0.00 0.43 0.43 94 5.7
20200226210611 0 284 11.3 20.9 0.00 0.43 0.43 95 5.7
20200226205111 0 305 9.7 14.5 0.00 0.46 0.43 95 5.6
20200226203611 0 288 8.0 14.5 0.00 0.46 0.43 95 5.6
20200226202111 0 232 8.0 16.1 0.00 0.46 0.43 95 5.3
20200226200611 0 216 9.7 17.7 0.00 0.46 0.43 95 5.3
20200226195111 0 286 9.7 17.7 0.00 0.51 0.43 94 5.2
20200226193611 0 225 12.9 19.3 0.00 0.51 0.43 94 5.1
20200226192111 0 306 11.3 16.1 0.00 0.51 0.43 94 5.0
20200226190611 0 266 9.7 14.5 0.00 0.51 0.43 94 4.8
20200226185111 0 244 11.3 19.3 0.00 0.53 0.43 94 4.8
20200226183611 0 292 8.0 20.9 0.00 0.53 0.43 94 4.8
20200226180611 0 272 16.1 25.7 0.00 0.53 0.43 93 4.2
20200226175112 0 257 12.9 22.5 0.00 0.56 0.43 92 4.0
20200226170611 0 244 14.5 29.0 0.00 0.56 0.43 92 3.2
20200226165111 0 258 14.5 24.1 0.00 0.69 0.43 92 3.0
20200226160611 0 257 11.3 19.3 0.05 0.69 0.43 92 2.5
20200226145111 1 246 14.5 32.2 0.05 0.74 0.41 91 1.6
20200226142111 1 242 20.9 38.6 0.05 0.71 0.36 91 1.2
20200226140611 0 290 17.7 32.2 0.08 0.71 0.36 92 0.9
20200226135111 0 319 17.7 33.8 0.08 0.69 0.33 92 0.5
20200226132111 0 278 19.3 33.8 0.08 0.64 0.30 92
20200226130611 1 290 14.5 27.4 0.08 0.61 0.28 93 999.8